Weather History for Forrest, WE

Change the Weather History Date:

Wednesday, January 18, 2012

  Actual Average Record
Temperature  
Mean Temperature 75 °F -  
Max Temperature 88 °F - - ()
Min Temperature 62 °F - - ()
Cooling Degree Days 10    
Growing Degree Days 25 (Base 50)    
Moisture  
Dew Point 53 °F    
Average Humidity 50    
Maximum Humidity 77    
Minimum Humidity 16    
Precipitation  
Precipitation 0.00 in - - ()
Sea Level Pressure  
Sea Level Pressure 30.03 in    
Wind  
Wind Speed 14 mph ()    
Max Wind Speed 22 mph    
Max Gust Speed 30 mph    
T = Trace of Precipitation, MM = Missing Value Source: Averaged Metar Reports

Daily Weather History Graph

Daily Weather History Graph

Search for Another Location

Airport:

Trip Planner

Search our weather history database for the weather conditions in past years. The results will help you decide how hot, cold, wet, or windy it might be!

Date:

Astronomy

Jan. 18, 2012 Rise Set
Actual Time 4:41 AM AWST 6:33 PM AWST
Civil Twilight 4:14 AM AWST 7:00 PM AWST
Nautical Twilight 3:41 AM AWST 7:33 PM AWST
Astronomical Twilight 3:06 AM AWST 8:07 PM AWST
Moon No Moon Rise 1:45 PM AWST (1/18)
Length of Visible Light 14h 46m
Length of Day
13h 52m
Waning Crescent, 30% of the Moon is Illuminated
Jan 18
Waning Crescent
Jan 23
New
Jan 31
First Quarter
Feb 8
Full
Feb 15
Last Quarter

Hourly Weather History & Observations

Time (AWST) Temp. Dew Point Humidity Pressure Visibility Wind Dir Wind Speed Gust Speed Precip Events Conditions
12:00 AM 65 °F 56 °F 64% 30.01 in - SSE 11.5 mph - -  
12:00 AM 64.4 °F 55.4 °F 73% 30.04 in - SSE 11.5 mph - N/A   Unknown
1:00 AM 64.4 °F 55.4 °F 73% 30.01 in - SE 13.8 mph - N/A   Unknown
2:00 AM 65 °F 55 °F 61% 30.00 in - SE 15.0 mph - -  
2:00 AM 64.4 °F 55.4 °F 73% 30.01 in - SE 15.0 mph - N/A   Unknown
3:00 AM 64 °F 54 °F 61% 30.01 in - SE 16.1 mph - -  
3:00 AM 64.4 °F 53.6 °F 68% 30.04 in - SE 16.1 mph - N/A   Unknown
4:00 AM 64.4 °F 53.6 °F 68% 30.04 in - SE 17.3 mph - N/A   Unknown
5:00 AM 65 °F 54 °F 58% 30.06 in - ESE 13.8 mph - -  
5:00 AM 64.4 °F 53.6 °F 68% 30.06 in - ESE 13.8 mph - N/A   Unknown
6:00 AM 66 °F 53 °F 53% 30.07 in - ESE 15.0 mph - -  
6:00 AM 66.2 °F 53.6 °F 64% 30.09 in - ESE 15.0 mph - N/A   Unknown
7:00 AM 68.0 °F 53.6 °F 60% 30.09 in - ESE 17.3 mph - N/A   Unknown
8:00 AM 69 °F 55 °F 51% 30.09 in - East 16.1 mph - -  
8:00 AM 69.8 °F 55.4 °F 60% 30.09 in - East 16.1 mph - N/A   Unknown
9:00 AM 72 °F 54 °F 43% 30.08 in - East 15.0 mph - -  
9:00 AM 73.4 °F 53.6 °F 50% 30.09 in - East 15.0 mph - N/A   Unknown
10:00 AM 75.2 °F 51.8 °F 44% 30.09 in - ESE 12.7 mph - N/A   Unknown
11:00 AM 78 °F 51 °F 28% 30.04 in - ESE 10.4 mph - -  
11:00 AM 77.0 °F 50.0 °F 39% 30.04 in - ESE 10.4 mph - N/A   Unknown
12:00 PM 83 °F 50 °F 21% 30.01 in - ESE 13.8 mph - -  
12:00 PM 82.4 °F 50.0 °F 32% 30.04 in - ESE 13.8 mph - N/A   Unknown
1:00 PM 86.0 °F 48.2 °F 27% 30.01 in - SE 11.5 mph - N/A   Unknown
2:00 PM 87 °F 47 °F 16% 29.97 in - SE 12.7 mph - -  
2:00 PM 87.8 °F 46.4 °F 24% 29.98 in - SE 12.7 mph - N/A   Unknown
3:00 PM 86 °F 49 °F 18% 29.96 in - SE 21.9 mph - -  
3:00 PM 86.0 °F 50.0 °F 29% 29.98 in - SE 21.9 mph - N/A   Unknown
3:04 PM 86.0 °F 50.0 °F 29% 29.98 in - SE 18.4 mph 29.9 mph N/A   Unknown
4:00 PM 84.2 °F 50.0 °F 30% 29.98 in - SSE 17.3 mph - N/A   Unknown
5:00 PM 80 °F 49 °F 24% 29.97 in - SE 19.6 mph - -  
5:00 PM 80.6 °F 50.0 °F 34% 29.98 in - SE 19.6 mph - N/A   Unknown
6:00 PM 75 °F 51 °F 31% 29.99 in - SE 19.6 mph - -  
6:00 PM 75.2 °F 50.0 °F 41% 30.01 in - SE 19.6 mph - N/A   Unknown
7:00 PM 69.8 °F 53.6 °F 56% 30.01 in - SE 19.6 mph - N/A   Unknown
8:00 PM 67 °F 54 °F 55% 30.03 in - SE 21.9 mph - -  
8:00 PM 66.2 °F 55.4 °F 68% 30.04 in - SE 21.9 mph - N/A   Unknown
9:00 PM 65 °F 54 °F 60% 30.05 in - SE 18.4 mph - -  
9:00 PM 64.4 °F 55.4 °F 73% 30.06 in - SE 18.4 mph - N/A   Unknown
10:00 PM 64.4 °F 55.4 °F 73% 30.04 in - ESE 16.1 mph - N/A   Unknown
11:00 PM 63 °F 54 °F 66% 30.03 in - ESE 11.5 mph - -  
11:00 PM 62.6 °F 55.4 °F 77% 30.04 in - ESE 11.5 mph - N/A   Unknown